Flag for U.S.A. Weather past 2 weeks in Knoxville, Tennessee, U.S.A.

Now
47 °F

Passing clouds.


Feels Like: 45 °F
Forecast: 45 / 65 °F
Wind: 5 mph from West

Location: McGhee Tyson Airport

Current Time: Apr 21, 2015 at 6:19:56 AM

Latest Report: Apr 21, 2015 at 5:53 AM


Visibility: 10 mi

Pressure: 29.89 "Hg

Humidity: 80%

Dew point: 41 °F

Location of KnoxvilleLocation

Historic Weather in Knoxville — Graph

°F

Knoxville temperature yesterday

Maximum temperature yesterday: 72 °F (at 3:53 PM)
Minimum temperature yesterday: 54 °F (at 11:53 PM)
Average temperature yesterday: 63 °F

Past Weeks' High & Low Weather Summary

 TemperatureHumidityPressure
High84 °F (Apr 9, 2:53 PM)100% (Apr 7, 9:53 PM)30.24 "Hg (Apr 7, 9:53 PM)
Low48 °F (Apr 11, 6:53 AM)23% (Apr 11, 6:53 PM)29.59 "Hg (Apr 19, 7:53 PM)
Average64 °F75%30.02 "Hg
* Reported Apr 6 4:53 AM — Apr 21 4:53 AM, Knoxville, Weather by CustomWeather, © 2015

Note: Actual official high and low records may vary slightly from our data, if they occured in-between our weather recording intervals... More about our weather records

Advertising

Knoxville weather history for previous 24 hours

 ConditionsComfort  
Time TempWeatherWind HumidityBarometerVisibility
4:53 AM
Tue, Apr 21
48 °FClear.7 mph80%29.88 "Hg10 mi
3:53 AM50 °FClear.5 mph80%29.87 "Hg10 mi
2:53 AM49 °FClear.7 mph80%29.88 "Hg10 mi
1:53 AM52 °FClear.6 mph72%29.88 "Hg10 mi
12:53 AM52 °FPassing clouds.8 mph75%29.87 "Hg10 mi
11:53 PM
Mon, Apr 20
54 °FPassing clouds.8 mph72%29.85 "Hg10 mi
10:53 PM55 °FPassing clouds.7 mph74%29.83 "Hg10 mi
9:53 PM57 °FPassing clouds.12 mph72%29.80 "Hg10 mi
8:53 PM58 °FPartly sunny.17 mph70%29.75 "Hg10 mi
7:53 PM64 °FLight rain. Cloudy.20 mph54%29.70 "Hg10 mi
6:53 PM66 °FBroken clouds.17 mph52%29.67 "Hg10 mi
5:53 PM68 °FBroken clouds.18 mph45%29.64 "Hg10 mi
4:53 PM70 °FBroken clouds.22 mph46%29.62 "Hg10 mi
3:53 PM72 °FBroken clouds.18 mph48%29.62 "Hg10 mi
2:53 PM69 °FMostly cloudy.21 mph55%29.64 "Hg10 mi
2:03 PM69 °FThundershowers. Broken clouds.16 mph59%29.67 "Hg10 mi
1:53 PM69 °FBroken clouds.18 mph59%29.66 "Hg10 mi
12:53 PM68 °FBroken clouds.14 mph65%29.67 "Hg10 mi
11:53 AM69 °FScattered clouds.23 mph63%29.67 "Hg10 mi
10:53 AM68 °FPartly sunny.24 mph68%29.66 "Hg10 mi
9:53 AM66 °FScattered clouds.18 mph73%29.64 "Hg10 mi
8:53 AM61 °FScattered clouds.10 mph83%29.63 "Hg10 mi
7:53 AM57 °FPassing clouds.3 mph93%29.63 "Hg10 mi
6:53 AM57 °FLight rain. Partly cloudy.10 mph93%29.66 "Hg10 mi
Weather by CustomWeather, © 2015

See weather overviewHow to use our weather pages